Location: Fenn
(52.1430°N, 112.7440°W)
Time: 22:56:24
(UTC+00:00)

Envisat - Visible Passes

Search period start: 29 May 2023 00:00
Search period end: 08 June 2023 00:00
Orbit: 763 x 765 km, 98.2° (Epoch: 29 May)

Date Brightness Start Highest point End Pass type
(mag) Time Alt. Az. Time Alt. Az. Time Alt. Az.
30 May 5.6 10:00:40 10° NE 10:03:21 14° E 10:06:02 10° ESE visible
01 Jun 5.3 10:24:27 10° NE 10:28:25 22° E 10:32:21 10° SE visible
02 Jun 5.8 09:49:15 10° ENE 09:50:44 11° E 09:52:13 10° E visible
04 Jun 5.5 10:12:23 10° NE 10:15:50 18° E 10:19:17 10° SE visible
07 Jun 5.6 10:00:29 10° NE 10:03:14 14° E 10:05:58 10° ESE visible
